Wind_Speed
13 13 12 12 12 12 12 12 12 12 12 12 13 13 13 14 14 14 14 14 15 14 14 14 14 14 14 14 15 16 16 17 17 17 16 16 15 15 15 15 15 16 15 15 14 14 14 13 13 12 12 12 11 11 11 9 8 7 7 8 8 9 10 10 9 9 14 16 17 18 16 15 17 17 16 17 17 16 14 13 15 18 22 25 26
14 13 13 13 13 13 14 13 13 14 14 14 14 13 14 14 14 13 14 13 13 13 13 12 12 12 12 13 14 15 16 17 18 18 19 19 18 17 16 16 16 15 15 15 14 14 13 13 13 13 12 12 11 11 11 11 10 9 8 8 9 9 8 9 9 8 11 16 18 17 15 13 14 14 14 16 16 15 14 14 14 15 19 22 24
14 14 14 15 15 15 15 15 14 15 15 15 15 14 14 14 13 13 13 12 12 12 11 11 11 11 12 13 14 16 17 17 18 19 20 20 20 19 17 15 15 14 14 14 13 14 13 13 13 13 13 13 12 12 11 11 11 9 9 9 9 9 9 9 11 9 9 13 16 16 14 11 12 13 14 15 14 14 15 15 14 14 16 19 22
14 14 15 15 14 14 14 14 15 15 16 16 15 15 14 14 13 12 12 12 12 11 10 11 11 12 13 15 16 17 18 19 19 20 21 21 21 20 18 16 15 14 14 14 15 15 14 14 13 13 13 13 13 13 12 12 11 9 10 10 9 10 10 10 11 12 11 12 14 15 14 12 12 14 15 15 15 15 15 15 15 15 15 16 19
12 12 12 13 13 13 14 14 15 16 17 16 16 15 14 14 14 13 12 13 12 12 11 12 12 13 15 16 17 17 18 20 21 22 22 22 21 20 19 16 14 14 14 15 16 16 15 15 13 12 13 13 13 14 13 12 11 10 10 10 10 11 11 10 11 12 12 13 14 16 16 14 13 13 14 15 15 15 15 15 15 16 16 16 17
10 11 12 13 14 15 15 15 16 17 18 17 16 15 15 14 14 13 14 14 14 13 13 13 14 14 14 14 15 16 18 21 23 25 25 24 23 22 20 17 15 13 13 15 15 16 16 16 14 11 12 14 14 13 13 12 12 11 11 11 11 11 11 11 11 11 12 12 13 15 15 14 14 13 13 12 13 14 14 13 14 15 15 15 15
11 12 13 14 15 16 15 15 16 18 18 18 16 15 14 14 14 14 14 15 15 14 12 12 13 13 13 15 17 19 20 22 25 26 25 24 24 24 21 19 16 14 14 15 15 15 15 15 15 12 11 14 14 12 11 11 11 11 13 13 14 13 13 12 12 11 12 12 12 13 14 15 14 14 13 12 12 13 12 12 13 14 13 13 14
11 12 13 14 15 15 14 14 16 18 18 18 16 15 14 14 14 14 14 14 14 13 12 11 12 14 16 18 20 21 21 23 25 27 25 23 23 24 21 19 17 16 17 17 15 15 14 14 14 12 11 13 13 11 11 12 12 13 13 13 15 15 15 15 15 13 12 12 13 13 13 14 14 13 13 12 11 11 10 10 13 14 13 14 16
10 10 11 12 13 13 13 13 16 17 17 16 15 14 13 13 13 14 15 14 12 11 11 12 13 16 18 19 20 21 21 21 23 24 23 21 23 24 21 18 18 18 19 19 17 16 15 14 13 12 11 11 11 11 12 13 14 15 15 15 15 16 17 17 16 16 14 12 13 14 13 12 12 12 12 12 11 12 12 11 13 14 14 16 18
8 9 10 11 11 11 11 12 14 16 16 14 13 13 13 13 14 14 14 14 12 11 11 12 14 16 18 19 20 20 19 19 21 22 21 19 20 23 21 19 18 18 17 16 16 16 15 13 11 11 10 9 12 13 13 13 15 16 16 16 16 16 17 17 16 15 14 13 13 13 11 10 10 11 13 14 13 13 13 12 12 13 13 14 16
7 9 9 9 9 9 8 10 12 13 13 12 12 13 13 14 14 14 13 13 12 11 11 12 14 16 18 18 18 17 17 19 22 22 21 19 19 21 21 19 19 18 17 16 15 16 16 14 12 11 11 12 14 15 14 15 17 17 17 17 16 16 15 14 14 13 13 13 14 13 12 11 10 11 13 14 12 12 12 12 12 13 12 10 9
8 9 9 8 8 8 7 9 11 12 11 11 12 13 13 14 14 14 14 13 12 12 12 13 15 16 18 18 17 15 14 19 22 22 21 19 18 20 20 18 19 19 18 18 17 17 17 16 14 13 13 14 16 17 18 19 19 17 16 16 17 16 13 10 10 11 12 13 14 14 14 12 10 10 11 11 11 12 12 11 12 13 13 12 10
9 9 9 8 8 7 7 8 10 10 10 10 11 12 13 14 15 15 14 12 13 14 15 16 16 16 17 18 18 16 14 19 23 21 20 20 19 20 19 17 18 18 18 19 17 15 17 19 17 15 13 14 16 18 20 20 18 15 14 15 15 14 11 8 7 7 9 10 12 13 14 12 11 11 11 11 12 12 12 12 13 13 13 13 13
9 9 8 7 7 6 6 7 9 9 9 10 10 11 13 14 15 15 14 13 13 14 15 16 17 17 17 17 18 17 16 19 21 21 21 20 19 20 19 17 16 16 16 17 15 14 18 19 15 13 13 15 18 18 18 19 17 14 14 16 15 12 11 10 10 8 7 9 11 13 14 13 13 13 12 11 11 12 12 13 14 14 14 14 14
8 8 7 7 6 4 4 6 8 9 8 8 9 11 12 12 13 14 13 13 13 13 14 14 16 17 16 16 18 18 17 18 20 22 23 21 20 21 19 17 16 16 17 16 13 15 18 17 14 13 14 16 18 18 17 18 17 14 12 13 14 12 11 12 12 10 10 11 11 12 13 12 12 12 12 12 12 12 13 14 15 14 15 15 15
7 7 7 7 6 3 3 5 8 9 8 7 8 9 10 11 12 12 12 12 12 13 13 13 15 16 16 16 18 18 17 18 20 23 24 22 20 20 19 17 17 17 18 17 14 15 18 17 15 15 16 18 19 18 17 16 16 15 13 12 13 12 11 11 11 10 11 13 13 11 10 10 10 11 10 11 11 11 13 14 13 12 12 13 14
8 8 8 8 6 3 2 4 6 8 8 7 7 7 8 9 10 11 12 12 13 13 13 13 14 16 17 17 18 18 18 18 20 23 25 23 20 20 19 18 18 18 18 17 15 15 17 17 18 17 16 19 20 18 17 16 16 17 15 13 14 15 15 14 12 11 12 12 11 10 9 7 7 6 5 6 7 8 10 11 10 9 9 9 9
8 8 8 8 7 3 2 4 5 5 6 7 6 6 7 8 9 10 11 12 12 12 12 13 13 15 16 17 16 16 17 18 20 22 25 24 22 20 18 17 18 18 17 17 17 16 15 17 20 19 17 19 20 19 18 17 18 19 16 15 15 16 17 18 16 14 14 11 9 10 9 7 7 6 5 5 4 4 5 7 9 9 9 8 8
7 7 7 7 7 5 2 4 4 3 4 5 5 6 6 7 8 9 10 11 11 11 10 11 12 14 15 15 15 15 16 18 19 21 24 25 24 21 19 17 15 16 16 15 16 17 16 17 20 20 17 18 19 20 20 19 18 20 18 15 14 16 17 17 16 16 16 12 11 11 10 9 8 8 8 7 6 7 7 8 9 8 8 10 11
6 6 7 7 7 5 2 4 3 2 3 4 4 4 5 6 7 9 9 10 10 9 8 9 11 12 13 13 13 14 16 17 19 21 23 25 23 21 20 17 14 15 16 14 14 16 15 15 18 18 17 18 19 19 20 20 18 19 19 16 15 17 17 15 13 15 15 12 11 12 12 12 10 10 11 10 9 10 10 10 11 10 9 10 11
4 4 5 6 6 4 2 3 2 2 2 3 4 4 4 5 6 7 8 9 10 9 8 8 9 11 12 13 13 13 13 15 17 19 22 24 23 20 20 18 16 17 17 13 12 14 14 14 16 17 16 18 19 19 20 20 19 20 20 18 17 17 15 13 12 13 13 12 12 12 14 15 14 13 14 13 12 13 14 13 12 12 11 11 11
3 4 4 5 6 5 2 1 3 3 3 4 5 6 5 5 6 7 7 8 9 10 10 10 10 11 12 12 13 12 12 13 16 18 20 22 21 20 19 19 17 17 16 14 12 13 14 14 16 17 16 16 18 20 21 21 21 21 20 17 17 18 16 13 13 13 13 13 13 13 15 16 16 15 15 15 14 15 16 15 13 13 12 11 11
3 4 4 5 7 6 4 4 5 5 5 6 6 8 7 6 6 7 7 7 9 11 12 13 12 12 13 13 13 12 12 13 14 16 17 20 21 20 19 19 18 17 16 15 14 14 14 14 16 17 17 17 18 19 21 23 23 23 21 19 19 19 18 16 15 14 14 13 13 14 15 16 16 16 16 16 17 18 18 15 14 13 12 12 12
3 4 3 4 6 7 6 6 7 6 6 6 7 8 7 7 7 8 7 7 8 10 12 13 13 13 14 15 15 14 12 12 13 14 15 17 20 20 20 20 20 18 17 15 14 15 14 13 14 17 17 17 18 19 21 23 24 25 24 23 21 21 21 19 17 15 15 14 14 14 15 15 15 16 16 16 17 19 18 15 14 14 12 10 10
3 4 2 2 4 5 6 7 7 7 8 8 7 7 8 8 7 7 8 8 7 9 11 12 13 13 14 16 17 16 13 11 11 13 13 14 17 19 19 20 21 20 19 17 14 14 14 12 12 16 17 18 19 19 20 22 24 26 28 28 27 25 23 20 17 16 15 15 14 14 14 15 15 15 16 16 18 21 19 16 16 15 13 10 7
3 4 2 1 3 5 6 7 8 8 9 9 8 7 7 8 9 9 9 8 8 8 9 11 12 13 14 17 19 18 15 11 10 11 12 12 14 16 17 19 19 20 20 19 17 16 15 13 13 14 16 17 18 18 19 21 24 28 31 32 31 27 23 20 18 17 15 14 14 14 14 15 14 14 15 15 19 23 20 17 18 19 17 14 11
4 5 3 2 3 6 8 9 9 9 9 9 8 7 6 7 9 10 10 9 8 7 7 10 11 12 14 16 18 19 17 12 9 10 11 10 11 12 14 15 16 17 18 19 19 19 18 16 16 15 16 17 19 20 21 22 24 27 29 31 31 27 24 22 20 19 17 15 14 14 14 15 14 14 15 14 17 21 21 17 18 20 20 18 16
4 5 4 2 3 6 9 9 9 9 9 8 8 8 7 7 9 10 10 9 8 6 6 8 10 12 15 16 17 18 18 14 10 10 11 10 10 10 11 13 13 15 15 16 17 18 18 18 19 19 18 18 19 21 22 22 24 25 26 28 30 30 29 28 28 26 24 21 18 15 16 16 15 15 15 14 15 19 20 18 18 20 19 18 16
5 5 4 2 3 6 8 8 8 9 8 7 6 7 7 8 9 10 10 9 7 5 4 6 9 12 14 16 16 16 17 15 11 9 9 11 10 9 9 10 11 12 12 12 13 15 16 17 18 18 18 16 15 17 18 18 21 24 25 26 28 28 29 30 29 25 23 22 19 16 17 17 15 15 15 15 16 18 19 19 19 19 19 18 15
5 5 4 4 5 7 8 8 9 10 9 7 7 6 6 6 8 9 10 10 9 6 4 4 7 10 12 15 15 14 15 15 12 8 8 10 11 10 8 8 8 9 10 10 11 12 14 15 15 15 15 14 13 13 14 14 16 20 22 24 24 24 25 27 27 23 21 21 19 16 16 16 15 15 15 14 16 17 17 18 20 19 19 18 14
5 4 4 5 7 9 9 8 9 9 9 8 8 7 6 5 5 7 9 10 10 7 4 3 5 8 10 14 15 14 14 14 11 8 8 10 11 9 7 6 7 8 8 9 10 11 12 13 13 13 13 12 12 11 12 13 14 16 19 20 20 21 22 24 26 25 23 22 20 17 16 16 14 14 14 13 14 15 16 17 19 19 19 17 13
4 3 3 5 8 10 10 9 8 9 9 8 7 6 7 6 5 6 7 8 8 7 5 4 4 6 9 12 14 15 15 14 10 7 8 9 10 8 6 5 6 7 8 8 9 9 10 11 12 12 11 11 11 10 11 13 14 16 16 16 17 20 21 23 25 25 23 21 20 16 15 16 15 13 13 13 13 14 14 15 16 17 17 16 14
3 3 5 6 8 9 10 9 7 7 9 8 6 6 7 7 7 6 7 6 7 6 5 5 5 6 8 10 12 13 15 14 9 7 8 9 9 7 6 5 6 7 7 7 7 7 8 9 10 11 10 10 10 9 9 11 14 16 16 15 16 20 23 24 26 26 23 22 19 16 14 15 14 13 12 12 12 12 13 14 14 15 15 14 14
4 4 5 7 8 8 9 9 7 7 8 9 7 8 8 8 8 8 8 8 8 7 6 6 7 7 7 8 10 11 12 12 9 7 9 10 9 8 8 7 7 6 6 5 5 6 6 7 9 10 10 9 9 9 8 10 13 15 17 18 19 20 23 25 26 25 24 23 19 16 14 14 13 12 12 12 12 12 12 13 13 14 14 14 14
4 4 5 6 8 9 9 8 7 7 8 8 8 9 9 8 9 10 10 10 10 9 8 8 8 8 7 7 8 9 10 10 8 8 10 11 10 9 9 8 8 7 6 5 5 6 6 7 8 9 10 10 10 9 8 10 12 12 14 18 21 20 19 20 22 23 24 23 18 15 14 13 12 11 10 10 11 11 11 12 13 12 13 13 13
5 5 5 6 8 9 10 9 8 8 10 10 10 10 10 10 11 12 12 12 12 12 12 11 10 10 9 7 7 8 9 9 9 9 10 11 11 10 9 7 6 6 6 6 6 6 7 7 8 9 10 11 11 9 8 10 12 12 12 16 21 19 16 16 18 20 21 21 17 14 13 12 11 10 10 10 10 10 10 11 11 11 12 13 13
6 7 6 6 8 10 11 10 9 9 11 12 12 12 13 13 13 14 15 15 15 15 15 14 13 13 12 9 7 7 8 8 8 9 9 10 10 9 7 5 5 6 6 7 7 8 9 8 8 8 10 11 11 9 8 10 13 14 15 17 19 17 15 16 17 16 16 16 15 13 12 12 11 10 10 10 10 10 10 11 11 11 12 13 12
7 8 8 8 9 10 12 13 12 11 12 14 14 14 15 16 16 16 17 17 17 17 17 17 16 16 16 12 9 8 8 8 8 8 9 9 9 8 6 4 4 5 6 7 9 10 10 9 9 9 10 12 11 10 9 10 12 16 18 18 15 14 15 15 15 14 13 13 13 12 13 12 11 10 10 10 10 10 10 10 11 11 12 13 12
7 8 8 9 10 11 12 14 14 13 13 14 15 16 17 18 19 19 19 18 19 20 20 20 20 19 18 15 11 10 10 9 8 8 9 9 9 8 6 4 3 4 6 7 8 9 10 10 10 10 11 12 12 10 10 10 13 17 20 18 14 13 14 14 13 14 13 13 13 13 13 13 12 11 11 10 9 10 10 10 10 11 11 12 12
9 8 9 10 11 12 13 15 15 15 14 15 16 17 18 20 21 22 20 19 20 21 21 21 22 21 20 16 13 12 11 10 8 8 9 9 9 8 6 4 3 4 6 7 7 8 9 9 10 10 11 12 12 10 10 10 13 18 20 17 14 14 14 12 12 14 14 13 13 13 13 13 13 12 11 10 10 10 10 10 10 11 11 11 12
12 12 12 12 12 13 14 16 17 17 16 17 17 18 20 21 23 23 22 21 21 19 19 20 22 22 20 17 14 13 12 11 9 8 9 9 9 9 7 5 4 4 6 7 7 8 9 9 10 11 12 12 12 10 10 11 14 18 18 16 15 14 13 11 12 13 13 13 13 13 13 13 13 12 12 11 11 10 10 10 11 11 11 11 12
14 14 15 15 14 14 14 16 18 19 19 20 20 20 21 23 25 25 24 22 20 17 18 21 23 23 21 16 13 14 14 12 10 9 9 9 9 9 8 5 4 5 6 7 7 8 9 10 11 12 13 13 12 10 10 11 14 16 17 15 14 14 12 12 13 14 14 14 14 13 13 13 13 12 11 11 11 11 11 11 11 11 11 12 12
17 16 15 15 15 14 14 15 17 20 21 21 21 22 23 24 24 24 24 22 18 16 18 22 22 22 20 15 12 14 14 12 11 10 9 8 8 9 8 5 5 5 6 6 7 8 9 10 11 13 14 14 12 10 10 11 14 15 16 15 13 12 12 13 14 15 15 15 14 14 14 13 12 12 11 11 11 12 12 11 12 12 12 13 13
18 17 15 14 14 14 13 13 15 17 19 19 20 21 22 23 23 23 21 18 16 17 19 21 20 20 19 14 11 15 15 13 13 12 9 7 8 8 7 6 5 5 6 6 7 8 9 10 12 13 14 14 11 10 11 12 13 15 16 15 13 12 13 14 14 15 15 15 14 14 13 13 12 12 11 12 12 12 11 12 12 13 13 13 13
14 14 14 14 13 13 13 14 15 17 17 18 19 21 22 23 22 20 17 14 14 16 19 19 18 18 17 13 11 14 14 14 14 12 9 8 8 8 7 7 6 6 6 7 8 9 9 11 12 13 14 13 12 11 12 12 13 16 17 16 12 12 13 13 13 13 13 13 13 12 12 12 11 11 12 12 12 11 11 12 13 13 14 14 13
12 10 10 11 11 12 14 15 16 17 17 18 20 21 23 23 20 17 15 15 15 16 18 18 16 15 15 12 11 14 14 15 15 12 9 8 8 8 8 8 6 6 7 7 8 9 9 11 12 13 13 13 12 11 12 13 14 15 17 15 11 11 12 11 10 11 11 11 11 11 11 11 11 12 12 12 11 11 12 13 13 13 14 14 13
10 8 7 8 9 11 13 15 16 17 18 20 21 21 21 20 16 14 16 17 17 16 17 17 15 13 13 11 11 14 14 15 14 12 9 8 8 8 9 8 7 7 8 8 9 10 10 11 12 13 13 12 12 12 12 13 14 16 16 13 10 11 12 11 10 12 12 12 11 11 10 11 11 11 11 11 11 12 13 13 13 14 13 13 12
9 8 7 8 9 11 14 15 17 18 19 20 20 20 19 17 14 13 15 18 17 16 17 16 14 12 11 10 10 13 15 14 13 11 9 9 8 8 9 9 8 8 9 9 10 10 11 11 12 13 13 12 12 12 13 13 15 16 16 12 10 13 14 12 11 12 14 13 12 11 11 11 12 11 10 10 12 13 14 14 14 14 13 12 12
9 8 9 10 11 13 15 17 18 20 20 19 18 19 18 16 14 14 15 15 15 15 16 15 13 12 11 9 9 13 15 15 13 11 10 9 8 9 9 9 9 10 10 10 10 11 11 12 13 13 13 12 12 13 13 13 15 16 13 9 11 16 17 12 9 11 13 13 12 10 11 11 11 10 10 11 12 13 14 14 13 13 13 12 12
9 9 10 12 13 16 17 19 20 21 22 21 20 20 19 18 16 16 15 14 14 15 15 14 13 12 12 10 11 13 15 15 14 11 10 10 9 9 9 10 11 11 11 11 11 11 11 12 13 14 14 13 13 13 14 14 15 14 10 9 14 18 17 13 10 10 12 13 12 10 9 10 10 10 11 11 12 14 15 14 13 13 13 12 11
10 11 12 13 15 17 19 20 20 20 20 20 20 20 20 20 18 17 15 14 14 14 14 14 13 13 13 12 12 13 15 16 14 11 10 10 10 9 10 11 11 11 11 12 12 11 11 13 14 14 14 13 14 14 14 15 15 13 10 12 16 18 16 14 12 9 10 12 11 7 6 7 9 10 11 11 12 14 15 14 13 13 13 11 11
Wind_Direction
61 54 48 43 39 37 34 30 29 28 26 25 23 20 15 9 6 4 3 3 4 4 4 5 7 8 12 15 16 16 17 17 17 17 17 15 14 12 8 4 4 5 5 4 4 3 2 3 4 1 358 2 7 7 5 1 351 340 335 329 318 304 288 273 266 275 282 283 285 289 292 288 281 283 291 290 285 282 279 271 264 259 254 254 257
50 45 42 42 41 39 37 35 34 34 33 31 27 24 19 15 12 9 8 7 7 9 9 12 16 19 22 21 19 18 18 17 17 16 15 14 11 9 6 3 2 2 4 5 4 3 2 2 3 2 359 1 6 6 3 360 355 348 341 333 323 315 306 288 274 272 283 288 290 294 297 292 285 284 289 294 293 286 276 266 263 263 259 255 254
39 36 35 36 35 33 33 33 32 32 32 30 27 25 22 20 18 15 15 13 13 17 18 19 21 23 24 23 22 22 21 20 19 17 17 16 15 13 9 6 4 3 4 6 4 2 2 4 5 5 3 1 2 4 1 356 353 348 342 338 328 318 312 299 284 271 274 286 294 298 298 291 288 290 293 295 295 292 284 274 265 262 261 259 257
32 30 31 31 31 33 34 34 34 33 32 28 25 24 23 24 23 21 21 20 22 26 24 20 21 25 29 27 24 21 19 18 18 17 17 15 15 15 14 11 6 3 5 5 2 1 2 5 4 4 5 2 359 0 359 354 349 344 339 339 334 325 319 307 293 285 281 285 294 301 302 296 290 292 293 293 294 293 289 282 275 270 266 263 261
36 36 39 41 41 42 40 39 38 36 32 27 24 24 25 26 27 26 25 25 27 27 24 26 32 35 33 25 18 16 15 15 15 14 13 10 9 10 12 13 8 3 2 360 358 359 1 3 2 2 7 3 356 354 355 354 351 348 347 345 338 332 327 316 304 298 291 288 295 303 305 301 297 297 295 293 295 297 294 286 280 278 276 271 266
50 51 49 48 45 41 38 38 36 32 27 24 24 26 28 30 32 31 31 31 31 30 33 40 41 36 31 24 20 18 17 16 14 11 9 6 3 3 6 9 9 4 357 356 357 357 357 360 358 1 9 2 350 349 353 357 359 358 359 357 347 338 333 327 318 308 300 296 300 305 308 307 303 302 302 300 297 297 297 294 288 283 283 284 279
54 49 43 40 37 33 33 34 31 26 21 20 22 26 30 33 35 35 36 37 38 39 42 45 39 32 29 27 25 21 17 15 11 8 9 5 360 360 2 4 5 2 355 354 356 354 352 354 354 358 8 358 347 348 353 356 2 2 2 3 358 351 344 339 332 321 311 306 305 305 308 311 308 304 306 308 300 293 290 290 291 289 289 291 288
42 38 36 35 31 28 30 31 28 22 16 14 20 26 31 34 35 33 34 38 41 39 36 35 33 30 26 23 20 18 18 17 10 6 8 4 358 359 4 5 3 360 356 354 353 350 347 348 350 355 358 349 343 350 357 356 358 357 355 358 1 359 353 347 343 336 324 313 310 310 311 314 314 312 313 308 294 289 288 283 282 286 289 286 280
39 39 38 36 30 29 31 30 23 16 11 11 19 28 32 33 31 27 27 31 34 33 27 21 19 17 13 11 11 14 19 20 13 8 8 2 354 357 5 8 5 1 358 355 353 353 350 346 347 352 353 346 342 349 354 352 351 349 345 346 351 354 352 347 345 343 335 323 317 317 314 314 319 321 316 307 295 293 297 291 282 282 288 287 284
48 47 43 38 32 33 34 28 19 11 8 10 19 29 30 29 26 23 23 24 26 29 24 15 10 7 4 4 6 13 20 18 11 9 10 5 354 355 2 8 7 3 358 355 354 357 360 357 352 351 353 353 349 345 345 345 344 342 340 339 341 344 343 339 337 338 336 329 323 321 314 309 316 321 313 309 309 303 295 288 284 285 288 288 290
48 45 43 40 35 33 32 27 19 11 9 12 19 25 26 26 24 21 22 24 24 26 22 15 14 12 9 9 10 17 20 12 6 6 9 9 0 356 0 6 7 6 4 1 360 3 8 11 5 360 2 0 348 337 335 339 338 336 334 330 328 329 330 326 323 325 329 327 322 320 314 306 307 309 306 309 316 312 300 292 289 289 286 282 284
43 41 42 45 42 37 31 27 21 15 13 16 20 23 24 25 23 19 21 24 23 24 21 19 20 18 17 17 16 18 16 6 4 6 8 9 5 1 4 9 10 10 10 8 5 7 10 8 7 10 9 0 348 338 335 335 334 332 329 324 322 324 325 320 313 314 317 319 317 312 311 314 316 312 312 320 322 317 312 304 294 290 285 277 270
41 40 44 50 52 46 37 32 26 22 21 20 20 24 24 25 23 20 21 23 23 25 25 24 24 22 20 20 17 18 16 5 3 7 9 8 6 6 10 15 15 14 13 9 7 9 8 4 8 15 11 5 359 350 342 340 340 336 331 332 338 342 346 345 332 316 309 308 306 300 303 318 328 323 321 325 320 315 314 308 300 298 292 281 274
38 40 47 54 59 56 44 39 38 33 27 21 20 23 24 25 27 24 22 23 24 24 22 22 21 18 19 20 17 17 16 7 5 10 12 8 7 8 11 17 20 19 16 13 10 9 8 9 14 15 12 11 6 356 349 350 352 347 337 339 347 352 356 355 349 339 322 311 303 292 291 301 310 310 312 313 311 309 307 303 302 302 299 292 287
32 32 42 48 53 61 55 51 54 48 35 25 25 27 25 26 28 28 26 25 24 20 18 16 14 13 18 21 17 16 17 11 9 13 13 9 8 10 11 16 21 20 18 18 14 8 9 16 24 19 16 13 2 357 358 354 351 353 345 338 340 344 355 357 352 349 340 331 323 303 292 295 299 302 308 306 301 299 296 293 292 295 298 298 294
22 24 35 40 43 60 76 70 69 60 44 36 38 37 33 32 33 31 29 27 23 19 16 14 14 18 24 23 16 17 21 16 11 13 13 9 9 10 12 18 23 19 17 20 18 9 9 20 29 24 20 13 1 358 3 355 350 357 353 340 338 342 351 354 354 355 348 340 339 327 312 308 307 305 308 304 296 294 293 291 289 291 294 295 293
21 31 40 40 37 47 95 96 84 70 55 49 53 47 42 41 38 33 29 25 21 19 20 25 28 29 29 25 17 17 23 20 14 15 15 12 11 11 13 19 22 19 18 21 23 13 5 14 28 28 21 14 6 4 7 2 2 7 359 347 345 344 345 349 355 358 349 341 347 349 343 344 340 327 325 319 304 292 288 289 293 295 293 289 290
24 42 44 33 24 24 111 117 100 79 60 57 65 63 52 46 40 35 30 25 22 25 32 39 40 34 30 26 20 17 21 21 17 16 16 14 13 13 15 18 18 16 16 21 25 21 8 9 23 28 23 17 13 15 16 11 12 15 6 353 349 344 340 344 349 349 345 347 3 2 357 8 18 17 13 7 360 341 316 308 305 293 281 275 282
23 38 33 22 19 20 89 126 109 81 61 58 68 72 57 44 40 38 33 27 26 32 40 41 38 33 29 26 22 18 18 19 17 15 15 15 14 14 16 16 10 7 10 15 22 24 18 12 17 22 23 21 20 22 23 18 17 19 13 1 352 344 337 338 343 345 344 350 1 1 359 8 16 15 9 7 9 10 2 354 343 320 294 283 283
20 23 16 15 20 22 89 125 95 51 52 49 51 59 48 34 31 34 34 29 27 32 37 34 30 26 21 19 18 17 14 13 14 14 14 14 15 17 19 17 8 4 9 13 17 20 20 17 15 17 21 24 22 23 26 23 19 19 17 9 356 344 337 335 340 346 349 352 353 354 1 9 12 10 4 360 360 359 360 1 358 351 336 313 298
7 8 9 15 21 32 94 108 51 13 27 32 24 23 23 16 14 21 29 26 22 24 26 22 19 18 17 15 13 13 12 9 9 12 15 15 15 19 22 20 13 9 10 13 16 18 19 19 16 16 22 26 23 24 27 25 22 21 19 13 3 355 349 345 346 352 359 1 358 356 360 3 5 7 5 2 360 356 357 358 356 355 350 335 319
360 5 23 37 45 56 66 8 333 326 331 350 354 348 348 351 352 2 17 21 15 13 14 12 10 10 13 14 11 10 10 8 6 10 17 20 18 19 20 19 15 14 13 13 16 21 23 23 18 18 26 30 26 26 28 27 24 23 22 17 11 10 9 5 1 3 5 4 4 6 6 3 2 2 2 1 357 352 352 355 353 348 342 332 327
10 22 49 62 59 57 38 357 346 341 336 334 332 328 325 323 327 336 352 8 10 8 8 9 8 6 7 9 10 8 8 9 8 9 17 25 25 23 22 22 20 20 19 16 16 20 23 24 20 20 27 33 30 28 28 27 25 24 25 23 19 18 19 18 14 13 11 8 10 11 8 4 1 358 357 357 353 350 351 354 352 346 337 325 320
21 28 55 74 58 53 49 34 23 14 359 341 330 330 329 323 319 320 328 346 2 4 3 4 4 3 3 4 5 6 5 6 8 9 15 27 32 32 32 31 29 30 28 23 20 20 19 21 21 21 26 33 33 30 30 29 27 27 28 30 28 24 22 21 18 15 13 12 11 8 4 0 356 354 354 353 354 354 353 354 355 352 346 336 328
21 20 40 72 45 42 45 34 19 9 2 353 349 356 358 350 341 329 323 330 346 355 357 358 358 357 358 359 1 3 3 2 4 8 13 24 33 37 38 37 37 37 35 31 29 27 22 23 27 26 28 32 33 31 30 30 30 32 33 36 35 30 25 21 18 16 15 12 9 3 357 353 350 351 354 357 3 4 1 355 357 2 2 0 3
23 13 5 338 9 15 15 10 4 357 357 2 6 8 2 356 352 346 337 333 337 346 350 351 352 352 354 356 357 359 1 360 357 2 9 17 28 36 39 40 41 42 40 38 40 39 34 36 40 34 30 32 34 33 32 32 33 35 36 38 37 32 25 21 18 16 13 8 5 0 353 348 346 349 356 3 8 10 7 359 359 6 11 12 15
22 7 345 304 348 1 359 358 356 352 354 3 7 2 352 345 345 347 347 344 342 345 344 342 344 345 347 351 353 355 358 358 351 352 360 7 17 28 35 37 39 41 40 39 42 45 44 45 47 42 36 36 37 37 36 34 33 33 34 35 36 33 29 27 25 23 17 9 3 357 351 350 351 353 358 3 7 10 12 8 4 6 11 15 16
355 353 341 315 340 355 356 354 349 348 355 4 4 354 343 337 340 346 350 351 351 347 336 337 339 339 340 346 350 351 353 354 349 344 347 352 358 12 25 31 32 34 34 35 40 44 45 44 44 42 37 34 33 33 33 31 30 30 30 31 33 32 31 31 29 27 22 16 9 1 354 354 356 357 0 2 3 7 12 13 12 11 13 18 19
345 356 360 348 349 355 358 356 348 345 349 356 359 353 343 338 342 347 348 350 351 338 321 332 339 335 336 343 347 345 345 348 348 342 339 342 343 348 6 20 25 27 29 30 33 37 37 36 36 34 31 27 24 25 25 24 26 28 27 27 29 27 26 26 24 20 16 12 9 1 356 356 357 358 1 1 360 3 8 13 16 16 17 20 19
11 33 43 29 10 1 356 352 348 346 343 337 334 338 339 339 342 345 346 348 346 329 297 313 332 330 332 339 343 343 342 343 344 343 342 343 341 337 343 359 8 14 20 23 25 25 23 22 23 21 19 18 16 17 18 17 19 21 22 24 25 22 21 21 19 14 11 10 7 360 356 357 357 358 360 357 354 357 2 8 14 18 19 18 13
33 50 46 24 11 2 351 342 340 343 341 330 321 320 322 324 329 338 344 351 351 337 301 302 335 334 332 335 339 344 347 344 339 338 341 342 343 341 337 341 347 352 359 5 11 12 8 8 9 10 11 11 9 11 15 17 16 15 16 19 20 18 17 16 14 12 9 7 5 1 358 358 357 356 358 356 354 355 357 1 8 14 15 12 7
26 20 5 3 1 358 352 342 334 334 334 329 319 313 309 303 303 320 336 349 356 345 309 297 332 337 329 331 336 343 350 350 341 336 340 342 342 343 344 342 339 335 334 340 350 358 358 357 360 3 6 7 6 6 11 16 17 16 14 12 12 13 13 11 11 11 8 5 2 359 356 356 355 353 354 356 356 357 358 359 2 4 5 3 1
360 344 339 343 345 348 349 344 330 325 327 323 312 304 300 290 285 298 315 329 344 344 314 293 310 326 326 328 333 341 349 351 343 331 333 338 338 336 335 335 333 329 329 331 337 347 353 355 357 2 4 4 2 2 9 14 16 17 16 11 7 8 8 8 9 9 7 4 2 357 353 353 353 352 352 356 358 359 1 2 1 1 1 358 353
322 327 330 333 332 336 343 339 323 315 320 318 306 299 296 287 278 284 297 307 319 326 312 292 295 308 320 329 333 337 344 347 338 320 321 329 334 331 325 322 325 330 337 344 348 354 359 0 2 3 1 358 356 357 4 11 13 14 13 11 6 3 3 5 5 4 3 3 1 356 352 352 352 352 352 353 356 358 360 3 4 3 3 359 353
296 311 324 329 328 329 333 330 318 308 309 307 301 297 294 287 280 279 284 291 298 304 303 295 291 294 305 320 328 331 337 341 334 318 315 323 331 334 332 331 334 341 353 5 11 13 10 6 5 4 359 354 351 351 360 10 11 8 6 5 4 0 357 358 358 357 359 1 357 353 352 350 350 352 351 350 354 356 357 360 1 1 1 359 355
284 294 307 320 326 325 320 315 308 302 298 296 294 294 292 287 284 283 283 283 286 292 296 296 291 287 290 300 313 319 325 331 331 324 320 322 329 338 346 352 1 10 16 19 18 12 1 356 360 2 360 355 351 348 353 2 5 3 359 359 360 358 354 350 349 350 354 357 355 352 352 351 350 353 352 350 352 353 353 354 355 355 357 357 354
282 284 293 303 312 314 311 307 301 295 292 291 289 289 289 288 286 286 286 286 287 289 292 294 291 284 282 286 294 300 306 314 322 325 324 321 324 333 344 360 18 24 19 13 6 355 347 349 357 359 355 352 349 345 346 350 356 358 357 355 354 353 348 345 345 346 350 352 352 352 354 353 353 354 352 349 348 349 350 351 350 349 352 353 354
284 280 285 291 296 303 305 304 300 293 289 288 287 287 288 288 288 289 289 291 293 293 292 291 287 281 280 283 283 285 292 298 307 316 320 318 318 323 328 341 9 15 7 359 354 347 344 349 355 353 347 345 343 341 340 344 351 356 356 352 347 344 343 344 347 349 350 350 351 353 354 353 353 352 350 347 345 345 345 345 345 346 347 349 352
290 282 280 279 281 288 295 298 299 295 287 286 287 287 286 287 289 291 293 296 300 301 299 295 288 283 283 283 277 274 281 288 296 309 316 316 316 315 313 314 345 1 356 348 346 346 347 350 351 345 341 341 340 336 334 340 350 354 353 350 344 341 343 345 347 349 349 348 347 349 350 350 349 348 346 344 343 341 340 341 341 341 341 342 343
287 286 286 283 283 285 286 289 292 292 287 286 288 289 288 289 291 293 294 295 298 302 304 302 298 295 292 284 271 265 270 277 287 300 306 308 311 313 307 298 313 341 342 338 339 343 346 347 344 338 336 338 339 333 330 337 347 350 349 347 346 344 343 344 344 345 345 345 344 344 344 344 344 344 343 343 341 339 338 337 336 336 337 337 337
290 289 291 294 295 294 288 283 285 288 288 287 288 289 290 293 295 295 294 292 292 297 303 306 307 309 305 289 265 255 261 269 277 290 295 296 304 312 308 295 297 322 332 332 334 339 343 344 339 335 335 337 336 330 327 334 343 345 346 347 348 346 343 343 344 343 341 340 340 339 338 338 339 340 340 339 339 339 338 336 334 334 334 335 337
293 289 290 293 295 296 292 286 285 287 288 288 288 290 294 297 299 299 296 292 291 295 300 303 308 315 315 299 264 245 251 261 268 278 285 287 296 306 305 292 291 314 325 326 328 333 335 334 331 333 337 338 333 327 324 330 338 343 345 347 348 346 344 342 342 341 339 337 336 334 334 334 334 335 336 336 337 338 336 334 335 335 333 334 337
293 289 290 290 287 288 290 289 287 289 293 295 296 298 300 301 301 301 298 295 293 294 297 300 307 316 321 309 265 239 245 255 260 267 277 281 290 300 301 288 289 308 316 316 319 323 322 320 324 332 337 336 330 323 321 328 337 342 345 347 348 347 345 342 341 340 338 336 334 333 332 332 332 332 333 335 336 335 334 334 336 335 332 333 334
300 292 290 288 284 281 285 291 295 299 304 306 304 304 304 304 305 307 306 302 297 295 297 304 312 319 322 310 260 235 241 253 256 259 268 274 283 294 295 284 287 301 305 308 312 314 314 319 326 333 335 334 328 322 322 329 337 340 342 346 348 347 345 343 341 340 337 335 335 335 334 332 333 332 331 332 333 333 334 335 334 332 331 330 330
311 301 294 290 286 279 280 292 304 309 309 307 305 305 307 308 310 311 309 301 296 298 305 314 320 322 321 308 261 236 242 253 253 253 262 271 277 288 290 283 284 294 300 304 308 311 317 325 330 332 333 331 326 321 322 329 335 337 340 344 347 346 345 343 340 340 339 336 338 340 340 340 339 336 332 332 332 332 333 333 330 329 329 327 326
319 313 302 296 293 286 286 295 304 308 307 306 305 307 310 313 315 315 308 299 296 302 311 319 323 322 321 307 263 240 244 252 250 249 259 267 271 281 286 283 283 291 294 298 303 310 320 327 327 328 330 329 323 319 323 328 331 333 336 340 344 344 344 341 340 342 342 339 340 342 341 343 345 343 340 339 336 334 333 331 329 330 329 326 325
321 318 309 303 300 296 295 298 302 305 308 310 310 311 312 313 315 315 308 302 300 303 310 317 321 321 319 305 267 247 249 252 249 249 257 263 267 277 283 282 283 289 291 293 297 306 317 323 323 325 328 326 320 318 321 323 325 327 331 335 341 344 344 342 342 346 349 350 350 347 342 341 342 340 339 341 341 339 337 335 333 333 332 328 328
317 313 309 306 302 300 301 305 306 308 312 314 315 315 315 310 304 301 300 301 302 304 308 314 319 318 314 303 274 257 255 252 248 249 254 259 265 273 277 280 285 287 289 291 296 303 312 318 320 324 326 323 318 317 318 318 320 325 329 333 337 341 343 342 343 346 350 353 354 351 347 345 341 335 333 339 341 339 339 338 337 336 336 332 329
313 308 307 309 310 309 310 311 310 308 308 309 309 311 313 309 298 292 294 299 301 301 303 311 317 315 310 300 278 263 256 249 247 250 254 257 264 270 273 279 285 284 285 290 296 303 310 315 318 322 324 321 317 316 316 316 318 323 327 330 333 338 341 342 339 340 342 344 345 344 343 344 340 332 331 336 336 336 339 341 338 337 338 335 331
314 313 314 316 317 316 313 312 311 310 311 311 308 309 313 312 302 294 294 298 298 298 303 311 316 313 307 298 283 269 258 250 249 254 255 257 264 269 271 277 281 282 283 289 295 302 309 314 317 319 320 318 316 314 314 315 318 322 326 328 331 336 341 342 339 340 342 343 342 340 339 341 341 338 336 335 332 334 340 342 340 340 340 336 333
328 330 327 324 322 321 320 323 326 327 328 326 322 319 321 322 315 308 305 304 302 304 309 314 314 311 306 301 291 278 263 254 252 255 256 258 264 269 271 275 279 280 281 286 294 302 308 312 314 316 316 315 314 313 312 315 319 323 325 326 328 333 339 341 340 343 349 351 351 347 341 341 342 341 340 336 332 335 340 342 340 340 340 336 332
Height
831 830 829 828 827 825 824 823 822 821 819 818 817 815 814 813 811 810 809 808 807 806 805 804 803 802 801 800 799 798 797 796 795 794 793 792 791 790 789 787 786 785 784 783 782 780 779 778 777 776 774 774 773 772 771 771 770 770 769 769 768 768 767 767 767 764 762 762 762 761 763 763 762 762 763 762 762 762 762 761 761 762 762 763 764
830 830 829 827 826 825 824 823 822 821 820 818 818 816 815 814 812 812 810 809 808 807 806 805 804 803 802 801 800 799 798 797 795 794 793 792 791 790 789 788 787 785 784 783 782 781 780 778 777 776 774 773 773 772 771 770 770 769 769 768 768 767 766 766 765 764 762 761 760 760 761 761 760 760 762 761 760 760 760 760 760 760 760 761 761
830 829 828 826 826 825 824 823 822 821 820 819 818 817 816 815 813 812 811 810 809 808 807 806 805 804 803 802 801 800 799 798 796 795 794 793 792 790 790 788 787 786 784 783 782 781 780 779 777 776 775 774 772 771 771 770 769 769 768 767 767 766 765 765 764 763 761 760 759 758 758 759 759 758 759 759 759 758 758 758 758 758 758 759 759
830 829 828 827 827 826 825 824 823 822 821 820 819 817 816 815 814 813 812 811 810 809 808 807 806 805 804 803 802 801 800 798 797 796 794 793 792 791 790 789 788 787 785 784 783 781 780 779 777 777 775 774 773 771 771 770 769 768 768 767 766 765 764 763 763 762 761 759 758 757 757 757 757 757 758 757 757 756 756 756 756 756 756 757 757
832 831 830 829 828 827 826 825 824 823 822 820 819 818 817 816 814 814 813 812 811 810 809 808 807 806 805 804 803 802 800 799 798 796 795 794 793 791 790 789 788 787 786 784 783 781 780 779 778 777 775 774 773 772 771 770 769 768 767 766 765 764 763 762 761 760 759 758 757 756 756 756 756 756 756 755 755 754 754 754 754 754 754 754 755
833 832 831 830 829 828 827 826 824 823 822 821 819 818 817 816 815 814 813 812 811 811 810 809 808 807 806 805 804 803 801 800 798 797 796 794 793 792 790 789 788 787 786 785 783 782 780 779 778 776 775 775 773 772 771 770 769 768 767 766 765 764 762 761 761 759 759 758 756 755 755 754 754 754 754 754 753 752 752 752 752 752 752 752 753
834 833 831 830 829 828 826 826 825 824 822 821 820 819 818 817 816 815 814 813 812 812 811 810 809 808 807 806 805 804 802 801 799 798 796 795 793 792 790 789 788 787 786 785 783 782 780 779 778 776 775 775 774 773 771 770 769 768 767 766 765 763 762 761 760 759 758 757 756 755 754 753 753 752 752 752 751 751 750 750 749 749 750 751 751
834 833 831 830 829 828 827 826 825 824 823 822 821 819 818 818 817 816 815 814 813 813 812 811 810 809 808 807 806 805 803 802 800 798 797 796 794 792 790 789 787 786 785 784 783 782 780 779 778 776 775 775 774 773 772 770 769 768 767 766 765 764 762 761 760 759 758 756 755 754 753 752 751 751 751 750 750 749 749 749 748 747 748 749 748
834 833 832 831 830 829 828 827 826 826 824 823 822 821 820 819 818 817 816 815 814 814 813 812 811 810 809 808 807 805 804 803 802 800 799 797 795 793 791 789 788 786 785 783 782 781 780 779 777 776 775 775 774 772 771 770 769 768 767 766 765 764 763 761 760 759 758 756 754 753 752 751 751 750 750 749 749 748 748 748 747 746 747 747 745
835 834 833 832 831 830 829 828 827 826 825 824 823 822 821 820 819 818 817 816 815 814 814 813 812 811 810 808 807 806 805 804 804 802 800 799 796 794 791 789 788 786 785 783 782 780 779 778 777 776 775 774 773 772 771 770 769 769 768 767 766 765 763 762 760 759 758 756 755 753 752 751 750 750 749 748 748 747 746 746 746 745 746 745 743
836 835 834 833 832 831 830 829 828 827 826 825 824 823 822 821 820 819 818 817 816 815 814 813 812 812 810 809 808 807 806 806 804 802 800 799 797 794 792 790 788 787 785 783 782 780 779 778 776 775 774 773 772 771 770 770 769 768 767 766 765 765 763 762 760 759 757 756 755 754 752 750 750 749 748 747 746 746 745 745 744 744 744 744 743
837 835 834 834 833 832 832 830 830 828 827 827 826 824 824 822 821 820 819 818 817 816 815 814 814 813 811 810 809 808 807 806 804 803 801 799 798 795 793 790 788 787 785 784 782 781 779 778 776 775 774 773 772 770 769 769 768 767 766 764 763 762 762 761 759 758 757 755 754 753 752 750 749 748 747 746 745 745 744 744 743 743 743 742 741
837 836 835 834 833 833 832 831 831 830 829 828 827 826 825 823 822 821 820 820 819 818 817 816 815 814 812 811 810 809 808 807 805 803 801 800 798 796 793 791 789 787 786 784 783 781 780 778 777 776 775 773 772 770 769 767 766 765 764 762 761 760 759 759 758 757 756 755 753 752 751 750 748 747 747 746 745 744 743 743 742 742 741 741 740
838 837 836 835 834 834 833 832 831 831 830 829 828 827 826 825 824 823 822 821 820 819 818 817 816 815 814 813 811 810 809 808 806 804 802 800 798 796 794 791 790 788 787 785 783 782 780 778 777 776 775 774 772 770 768 766 765 764 763 761 760 759 758 757 756 756 755 754 753 751 749 749 748 746 745 745 744 744 743 742 741 741 740 739 738
838 837 836 835 834 834 833 833 832 831 831 830 829 828 827 826 825 824 823 822 821 820 819 818 817 816 815 813 812 811 810 809 807 805 802 801 799 796 794 792 790 789 787 785 784 782 780 779 778 777 775 774 772 770 768 766 764 763 762 761 759 758 757 756 755 754 753 753 751 750 748 747 746 745 744 743 743 743 742 741 740 739 738 737 736
839 838 836 835 835 834 834 833 833 832 832 831 830 829 829 828 827 826 825 823 823 821 820 819 818 817 816 814 813 812 810 809 807 805 803 801 799 797 794 792 791 789 787 786 784 782 781 780 778 777 776 774 772 770 768 767 764 762 761 760 758 757 756 755 754 753 752 751 750 748 747 745 745 744 743 742 741 741 740 739 738 738 737 735 734
839 838 837 836 835 834 834 834 833 832 832 831 831 830 830 829 828 827 826 825 823 822 821 821 820 818 817 815 814 812 811 809 808 806 804 801 799 797 795 793 791 790 788 786 785 783 782 781 779 777 776 775 773 770 769 767 765 763 761 759 758 756 755 754 753 752 751 750 748 747 745 744 743 742 741 740 740 739 739 738 737 736 736 735 733
839 838 837 836 835 834 834 834 833 833 832 831 831 831 830 830 829 828 827 825 824 824 823 822 821 819 818 816 815 814 812 810 809 807 805 803 800 798 796 794 792 790 788 787 786 784 783 781 780 778 777 776 774 771 770 768 765 763 762 760 758 756 755 753 752 750 750 748 747 746 744 743 742 741 740 739 738 738 737 737 736 735 735 734 733
839 838 837 836 835 834 834 834 833 833 833 832 831 831 831 830 830 829 827 826 825 824 824 823 822 820 819 818 816 815 813 811 810 808 806 804 801 799 797 795 793 791 789 788 786 785 783 782 781 779 778 777 775 773 771 769 767 765 763 761 759 757 755 753 752 750 749 747 746 745 744 742 741 740 739 739 738 737 736 736 735 734 733 732 731
839 838 837 836 835 834 834 834 834 833 833 833 832 832 831 831 830 829 828 827 826 825 824 823 822 821 820 818 817 816 814 812 811 809 807 805 802 800 798 796 794 792 790 789 787 786 785 784 782 781 779 778 776 774 772 770 768 766 764 762 760 758 756 754 752 751 749 747 746 745 743 742 740 739 739 738 737 737 736 735 734 733 732 731 730
839 838 837 836 836 835 834 835 834 834 833 833 833 832 832 831 830 830 829 828 827 826 825 824 823 822 820 819 818 816 815 813 812 810 808 806 803 801 799 797 795 794 792 790 789 788 786 785 784 782 780 778 777 775 772 771 769 767 765 763 762 759 756 754 752 751 749 747 746 745 743 741 740 739 738 738 737 736 735 734 734 733 732 731 730
839 838 837 837 836 835 835 835 834 834 834 833 833 832 832 831 830 830 829 828 827 826 825 824 823 822 821 820 818 817 815 814 812 811 809 807 804 802 800 798 797 795 793 792 791 789 788 787 786 784 781 780 778 776 773 771 769 767 766 764 762 759 756 754 753 751 749 748 747 745 744 742 741 740 739 738 737 736 735 733 733 732 731 731 730
839 838 838 837 837 836 836 835 834 834 834 833 833 832 831 831 830 830 829 828 828 827 826 824 823 822 821 820 818 817 816 814 813 812 810 808 806 804 802 800 798 796 795 793 792 791 790 789 787 785 783 781 779 777 775 772 770 768 766 764 761 759 757 755 753 752 751 749 748 747 745 744 743 742 740 739 738 736 734 733 732 731 730 729 728
839 839 838 838 837 837 836 835 835 834 834 833 832 832 831 831 830 829 829 828 828 827 826 825 824 822 821 820 818 817 816 815 814 812 811 809 807 805 803 801 799 797 796 795 793 792 791 790 788 786 784 782 780 778 776 774 772 769 767 764 762 760 757 756 755 754 752 751 750 749 748 746 745 744 742 740 739 736 734 733 731 730 728 727 726
839 839 838 838 838 837 837 836 835 835 834 833 832 831 831 830 830 829 829 828 828 827 826 825 824 823 822 821 819 818 816 815 814 813 812 810 809 807 805 803 801 799 797 796 794 793 792 791 789 788 786 783 781 779 778 776 774 771 768 765 763 761 759 758 757 756 754 753 752 751 749 748 747 745 743 741 739 736 734 733 731 729 727 726 725
840 839 839 838 838 837 837 836 835 835 834 833 833 832 831 831 830 829 829 828 828 827 826 826 824 823 822 821 819 818 816 815 814 813 812 811 810 808 806 804 803 801 799 797 796 794 792 791 790 789 787 785 783 781 780 778 775 773 770 767 765 764 762 761 759 758 756 755 754 752 751 749 747 746 744 742 740 737 735 733 731 729 727 725 724
840 839 839 839 838 838 837 836 835 835 834 834 833 832 832 831 830 829 829 828 828 827 826 826 825 824 823 821 820 818 816 815 814 813 812 811 810 809 807 805 804 802 801 799 797 795 794 793 791 790 789 787 785 783 781 779 777 775 772 770 768 767 765 764 762 760 759 757 755 754 752 750 747 746 744 742 741 738 737 735 733 730 728 726 725
840 840 839 839 838 838 837 836 836 835 835 834 833 833 832 831 831 830 829 828 828 827 826 826 825 823 822 821 820 818 816 815 814 813 812 811 810 809 808 806 805 803 802 801 799 798 796 794 792 791 789 787 786 784 782 781 779 777 775 773 771 769 767 765 763 761 760 758 756 754 752 750 748 746 744 743 741 740 738 736 735 732 730 728 727
840 840 839 839 839 838 837 837 836 835 835 835 834 833 832 832 831 830 829 828 827 827 826 825 825 823 822 821 820 818 816 815 813 813 812 811 810 809 808 807 806 804 803 802 801 799 797 795 794 792 790 789 787 785 784 782 780 779 777 775 773 771 769 766 764 763 761 759 757 755 753 750 749 747 745 744 742 741 739 737 735 733 732 730 729
840 840 839 839 839 838 837 837 836 836 835 835 834 833 832 832 831 830 829 828 827 826 826 825 825 824 822 821 820 818 816 815 813 812 812 811 810 809 808 807 806 805 804 803 802 800 798 797 795 793 792 790 789 787 786 784 782 780 778 776 774 772 770 769 767 765 763 761 758 756 754 752 750 748 747 745 743 741 740 738 737 735 733 732 731
840 840 839 839 839 838 838 837 836 835 835 834 834 833 832 832 831 830 829 828 827 826 826 825 825 824 822 821 819 818 817 815 813 812 812 811 810 809 808 807 806 805 804 803 802 801 799 798 796 795 793 792 790 789 787 785 784 782 780 778 776 774 772 771 768 766 764 762 759 758 755 753 752 750 748 747 745 743 741 739 738 736 735 733 732
840 840 840 839 839 838 838 836 836 835 834 834 833 833 832 831 830 830 829 828 827 826 826 825 824 823 822 821 819 818 817 815 814 813 812 811 810 809 807 807 806 805 804 803 802 801 800 798 797 795 794 793 791 790 788 787 785 784 781 780 778 776 774 772 770 767 765 763 760 758 756 754 753 751 750 748 746 744 743 741 739 738 736 735 733
840 840 839 839 838 838 837 836 835 835 834 833 833 832 831 830 830 829 828 828 827 826 825 825 824 823 822 821 819 818 816 815 814 813 812 811 810 809 807 807 805 804 804 803 802 801 800 798 797 796 794 793 792 790 789 788 786 785 783 781 779 777 775 773 770 768 766 764 761 759 757 756 754 752 751 749 748 746 745 743 742 740 738 736 734
840 839 839 838 838 837 836 835 835 834 833 833 832 831 830 830 829 828 827 827 826 825 824 824 823 822 821 820 819 818 816 815 814 813 812 811 810 809 808 807 805 804 803 802 802 801 800 799 798 796 795 794 792 791 790 789 787 786 784 782 780 778 775 773 770 768 766 764 762 760 758 756 755 753 752 750 749 748 746 745 743 742 740 738 736
839 839 838 838 837 836 836 835 834 834 833 832 831 830 829 829 828 827 827 826 825 824 823 823 822 821 821 820 819 818 816 815 814 813 812 811 810 809 808 807 806 804 803 803 802 801 800 799 798 797 795 794 793 791 790 789 788 786 785 783 780 778 776 773 771 769 766 764 762 760 759 757 756 754 753 752 750 749 748 746 745 744 742 741 739
838 838 837 837 836 835 835 834 833 833 832 831 830 830 829 828 827 827 826 825 824 823 822 822 821 820 820 819 818 817 816 815 814 813 812 811 810 809 808 807 806 805 804 803 802 801 800 799 798 797 796 795 793 792 791 790 788 787 786 784 781 779 777 775 772 769 767 765 763 761 759 758 756 755 754 752 751 750 749 748 746 745 744 742 740
838 837 836 836 835 835 834 833 832 832 831 830 830 829 828 827 827 826 825 824 823 822 822 821 820 819 818 818 817 817 816 815 814 813 812 811 810 809 808 807 806 806 805 804 803 802 801 800 799 797 796 795 794 793 791 790 789 787 786 784 782 780 778 776 773 770 768 765 764 762 760 759 757 756 755 754 752 751 750 749 747 746 745 743 741
837 836 836 835 834 834 833 832 831 831 830 829 829 828 827 826 825 825 824 823 823 822 820 819 818 817 817 817 817 816 815 814 813 812 812 811 810 809 808 807 807 806 805 804 803 802 801 800 799 798 796 795 794 793 792 790 789 788 786 784 782 780 778 775 773 770 768 766 765 763 761 760 758 757 756 755 753 752 751 749 748 746 745 744 742
835 835 835 834 833 833 832 831 830 829 828 828 828 827 826 825 824 824 823 822 821 820 819 818 816 815 815 815 815 814 814 813 812 812 811 810 809 809 808 807 807 806 805 804 803 802 801 800 799 798 796 795 794 793 792 790 789 788 786 784 782 780 778 776 773 771 769 767 766 764 762 761 759 758 757 755 754 753 751 750 749 747 746 744 743
834 834 833 832 832 832 830 829 829 828 827 827 826 826 825 824 823 822 822 821 819 818 817 816 814 813 813 813 813 813 812 812 811 811 810 809 809 808 807 807 806 806 805 804 803 802 801 800 799 797 796 795 794 793 791 790 789 788 786 784 782 780 778 776 774 772 770 768 767 765 763 761 760 759 757 756 755 753 752 751 749 748 747 745 744
833 833 832 831 831 830 829 828 827 826 826 825 825 824 823 822 821 820 819 818 817 816 815 814 812 811 810 811 811 811 811 810 810 810 809 808 808 807 806 806 806 805 804 804 803 802 801 800 798 797 796 795 794 792 791 790 789 787 786 784 782 780 778 776 774 773 771 769 767 765 764 762 761 759 758 756 755 754 752 751 750 748 747 746 744
831 831 830 830 829 828 827 827 826 825 824 824 823 822 822 820 819 818 816 815 814 814 813 811 810 808 808 808 808 808 809 808 809 808 808 807 807 806 805 805 805 804 804 803 802 801 800 799 798 797 796 794 793 792 791 790 789 787 785 783 782 780 778 776 774 772 770 769 767 765 764 762 761 759 758 757 755 754 753 751 750 749 747 746 744
829 828 828 828 827 827 826 825 824 824 823 822 822 821 820 818 817 815 814 813 813 812 810 809 807 806 805 805 805 806 807 807 807 807 806 806 806 805 804 804 804 803 803 802 801 801 800 798 798 796 795 794 793 792 791 790 788 787 785 783 781 780 778 776 774 772 770 768 767 765 764 762 761 759 758 757 756 754 753 752 750 749 747 746 744
827 826 826 825 825 825 824 824 823 822 822 821 820 819 818 816 815 813 812 811 811 809 808 807 806 805 804 803 803 804 805 805 805 805 805 805 805 804 804 803 803 803 802 801 801 800 799 798 797 796 795 793 792 791 790 789 788 786 785 783 781 780 778 776 774 772 770 768 767 765 763 762 761 759 758 757 756 755 753 752 751 749 748 746 744
825 824 824 823 823 823 823 822 822 821 820 819 818 817 815 814 813 811 810 809 808 807 806 805 804 803 802 801 802 802 803 803 803 803 804 804 803 803 803 802 802 802 801 800 800 799 798 797 796 795 794 793 791 790 789 788 787 786 784 783 781 779 777 776 774 772 770 769 767 765 764 762 761 760 758 757 756 755 753 752 751 749 748 746 744
824 823 822 822 822 821 821 821 820 819 818 817 816 814 813 812 811 810 809 807 806 806 805 804 803 802 801 800 800 801 801 801 802 802 803 803 802 802 802 801 801 801 800 799 799 798 797 796 795 794 793 792 791 790 789 788 786 785 784 782 781 779 777 776 774 772 771 769 767 766 764 763 762 760 759 757 756 755 754 752 751 749 747 746 744
823 822 821 821 820 820 820 819 818 817 816 815 814 812 811 810 809 808 807 806 805 804 803 802 801 801 800 799 799 800 800 800 800 801 801 801 801 801 801 800 800 800 799 798 798 797 796 795 794 793 792 791 790 789 788 787 786 784 783 781 780 779 777 775 774 772 771 769 767 766 765 763 762 760 759 757 756 755 753 752 750 749 747 746 744
822 821 821 820 820 819 819 818 817 816 814 813 811 810 809 808 807 806 805 804 804 803 802 801 800 799 798 798 798 798 799 799 799 800 800 800 800 800 800 799 799 799 798 797 797 796 795 794 793 792 791 790 789 788 787 786 785 783 782 781 779 778 776 774 773 771 770 769 767 766 765 763 762 760 759 757 756 755 753 752 750 749 747 746 744
821 821 820 820 819 818 818 816 815 814 812 810 809 807 806 805 804 803 803 802 802 801 800 799 798 798 797 797 797 797 797 798 798 799 799 799 799 799 799 798 798 797 797 796 796 795 794 793 792 791 790 789 788 787 786 785 784 782 781 780 778 777 775 774 772 771 769 768 767 765 764 763 761 760 759 758 756 755 753 752 750 749 748 746 745
821 820 820 819 818 817 816 814 813 811 810 809 807 805 804 803 802 801 800 800 800 799 798 798 797 797 796 796 795 795 796 796 797 797 797 798 798 798 797 797 797 796 796 795 795 794 793 792 791 790 789 788 787 786 785 784 782 781 780 779 777 776 774 773 771 770 769 767 766 764 763 762 761 760 759 757 756 754 753 751 750 749 748 746 745
820 819 819 818 817 815 814 813 811 810 808 807 805 804 802 801 800 799 799 798 798 798 797 797 796 795 795 794 794 794 794 794 795 796 796 796 796 796 796 796 795 795 795 794 793 793 792 791 790 789 788 787 786 785 783 782 781 780 779 778 776 775 773 772 770 769 768 766 765 764 763 762 761 760 759 757 756 754 752 751 750 749 747 746 744